Flag for U.S.A. Weather past 2 weeks in Fargo, North Dakota, U.S.A.

Now
50 °F

Sunny.


Feels Like: 49 °F
Forecast: 49 / 78 °F
Wind: 3 mph from Southwest

Location: Hector International Airport

Current Time: May 26, 2015 at 7:21:39 AM

Latest Report: May 26, 2015 at 6:53 AM


Visibility: 9 mi

Pressure: 29.86 "Hg

Humidity: 93%

Dew point: 48 °F

Location of FargoLocation

Historic Weather in Fargo — Graph

°F

Fargo temperature yesterday

Maximum temperature yesterday: 66 °F (at 3:53 PM)
Minimum temperature yesterday: 52 °F (at 11:53 PM)
Average temperature yesterday: 61 °F

Past Weeks' High & Low Weather Summary

 TemperatureHumidityPressure
High75 °F (May 22, 4:53 PM)97% (May 15, 4:51 AM)30.48 "Hg (May 15, 4:51 AM)
Low31 °F (May 19, 5:53 AM)26% (May 20, 5:53 PM)29.39 "Hg (May 17, 2:53 PM)
Average54 °F72%30.02 "Hg
* Reported May 11 5:53 AM — May 26 5:53 AM, Fargo, Weather by CustomWeather, © 2015

Note: Actual official high and low records may vary slightly from our data, if they occured in-between our weather recording intervals... More about our weather records

Advertising

Fargo weather history for previous 24 hours

 ConditionsComfort  
Time TempWeatherWind HumidityBarometerVisibility
5:53 AM
Tue, May 26
49 °FClear.5 mph93%29.86 "Hg10 mi
4:53 AM52 °FPassing clouds.7 mph86%29.86 "Hg10 mi
3:53 AM50 °FPassing clouds.6 mph93%29.85 "Hg7 mi
2:53 AM49 °FFog.3 mph97%29.87 "Hg4 mi
1:53 AM49 °FClear.No wind97%29.88 "Hg7 mi
12:53 AM51 °FClear.3 mph92%29.87 "Hg7 mi
11:53 PM
Mon, May 25
52 °FClear.3 mph93%29.87 "Hg8 mi
10:53 PM54 °FClear.5 mph90%29.83 "Hg10 mi
9:53 PM57 °FSunny.No wind87%29.83 "Hg10 mi
8:53 PM61 °FSunny.3 mph81%29.82 "Hg10 mi
7:53 PM63 °FPartly sunny.6 mph75%29.82 "Hg10 mi
6:53 PM64 °FOvercast.5 mph70%29.81 "Hg10 mi
5:53 PM65 °FOvercast.8 mph68%29.80 "Hg10 mi
4:53 PM65 °FOvercast.7 mph66%29.79 "Hg10 mi
3:53 PM66 °FOvercast.10 mph63%29.78 "Hg10 mi
2:53 PM65 °FOvercast.14 mph68%29.78 "Hg10 mi
1:53 PM65 °FPassing clouds.16 mph68%29.77 "Hg10 mi
12:53 PM65 °FLight rain. More clouds than sun.13 mph76%29.77 "Hg10 mi
11:53 AM63 °FLight rain. Overcast.9 mph81%29.78 "Hg10 mi
10:53 AM61 °FLight rain. Overcast.7 mph87%29.77 "Hg10 mi
9:53 AM60 °FLight rain. Mostly cloudy.9 mph90%29.77 "Hg7 mi
8:53 AM59 °FLight rain. Fog.10 mph90%29.77 "Hg6 mi
7:53 AM59 °FLight rain. Fog.12 mph87%29.77 "Hg6 mi
Weather by CustomWeather, © 2015

See weather overviewHow to use our weather pages